When you browse on this site, cookies collect data to enhance your experience and personalize the content and advertising you see.
Visit our Privacy Policy to learn more. By continuing to use the site, you agree to this use of cookies and data.
  • In Hungary
  • List of Countries
  • For 7 days
  • Water Temperature
  • Satellite Maps
  • Weather Map
  • News
  • Weather Widgets
  • user-avatar
    Login

    Hourly Weather Polakowice

    Today, 19 December, Wednesday

    Time Temperature Precipitation Wind Pressure Humidity
    00:00 -2°C° 0 mm 3 mps 757 mmHg 90%
    01:00 -2°C° 0 mm 3 mps 757 mmHg 90%
    02:00 -2°C° 0 mm 3 mps 756 mmHg 89%
    03:00 -2°C° 0 mm 3 mps 756 mmHg 89%
    04:00 -2°C° 0 mm 3 mps 756 mmHg 88%
    05:00 -2°C° 0 mm 3 mps 756 mmHg 88%
    06:00 -2°C° 0 mm 3 mps 756 mmHg 89%
    07:00 -2°C° 0 mm 3 mps 755 mmHg 89%
    08:00 -3°C° 0 mm 4 mps 755 mmHg 86%
    09:00 -2°C° 0 mm 4 mps 755 mmHg 83%
    10:00 -1°C° 0 mm 4 mps 755 mmHg 81%
    11:00 -1°C° 0 mm 4 mps 754 mmHg 78%
    12:00 0°C° 0 mm 4 mps 754 mmHg 76%
    13:00 0°C° 0 mm 5 mps 754 mmHg 74%
    14:00 0°C° 0 mm 4 mps 754 mmHg 75%
    15:00 -1°C° 0 mm 4 mps 753 mmHg 76%
    16:00 -1°C° 0 mm 4 mps 753 mmHg 77%
    17:00 -1°C° 0 mm 4 mps 753 mmHg 77%
    18:00 -2°C° 0 mm 4 mps 753 mmHg 77%
    19:00 -2°C° 0 mm 4 mps 753 mmHg 76%
    20:00 -2°C° 0 mm 4 mps 752 mmHg 76%
    21:00 -2°C° 0 mm 4 mps 752 mmHg 76%
    22:00 -2°C° 0 mm 4 mps 752 mmHg 76%
    23:00 -2°C° 0.1 mm 4 mps 752 mmHg 76%

    Tomorrow, 20 December, Thursday

    Time Temperature Precipitation Wind Pressure Humidity
    00:00 -2°C° 0.1 mm 4 mps 752 mmHg 76%
    01:00 -1°C° 0.1 mm 3 mps 752 mmHg 76%
    02:00 -1°C° 0 mm 3 mps 752 mmHg 76%
    03:00 -1°C° 0 mm 3 mps 752 mmHg 76%
    04:00 -1°C° 0 mm 3 mps 751 mmHg 77%
    05:00 -1°C° 0 mm 3 mps 751 mmHg 78%
    06:00 -2°C° 0 mm 3 mps 752 mmHg 78%
    07:00 -2°C° 0 mm 3 mps 752 mmHg 79%
    08:00 -2°C° 0 mm 3 mps 752 mmHg 79%
    09:00 -2°C° 0 mm 4 mps 752 mmHg 78%
    10:00 -2°C° 0 mm 4 mps 752 mmHg 77%
    11:00 -2°C° 0.1 mm 4 mps 752 mmHg 78%
    12:00 -1°C° 0.1 mm 4 mps 752 mmHg 79%
    13:00 0°C° 0.1 mm 3 mps 751 mmHg 80%
    14:00 0°C° 0.1 mm 3 mps 751 mmHg 82%
    15:00 0°C° 0.1 mm 3 mps 751 mmHg 84%
    16:00 0°C° 0.1 mm 3 mps 752 mmHg 86%
    17:00 0°C° 0 mm 3 mps 752 mmHg 86%
    18:00 0°C° 0 mm 3 mps 752 mmHg 86%
    19:00 +1°C° 0 mm 3 mps 752 mmHg 87%
    20:00 +1°C° 0 mm 3 mps 752 mmHg 87%
    21:00 +1°C° 0 mm 3 mps 752 mmHg 88%
    22:00 +1°C° 0 mm 3 mps 752 mmHg 88%
    23:00 0°C° 0 mm 4 mps 752 mmHg 88%

    Day after tomorrow, 21 December, Friday

    Time Temperature Precipitation Wind Pressure Humidity
    00:00 0°C° 0 mm 4 mps 752 mmHg 88%
    01:00 0°C° 0 mm 4 mps 752 mmHg 88%
    02:00 0°C° 0 mm 4 mps 751 mmHg 88%
    03:00 0°C° 0 mm 4 mps 751 mmHg 88%
    04:00 0°C° 0 mm 4 mps 751 mmHg 88%
    05:00 0°C° 0.2 mm 4 mps 750 mmHg 87%
    06:00 +1°C° 0.2 mm 5 mps 750 mmHg 86%
    07:00 +1°C° 0.2 mm 5 mps 750 mmHg 86%
    08:00 +1°C° 0.1 mm 5 mps 749 mmHg 85%
    09:00 +1°C° 0.1 mm 5 mps 749 mmHg 84%
    10:00 +2°C° 0.1 mm 5 mps 749 mmHg 83%
    11:00 +2°C° 0.1 mm 5 mps 748 mmHg 83%
    12:00 +2°C° 0.1 mm 5 mps 747 mmHg 82%
    13:00 +2°C° 0.1 mm 6 mps 746 mmHg 82%
    14:00 +2°C° 0.4 mm 6 mps 746 mmHg 82%
    15:00 +2°C° 0.4 mm 6 mps 745 mmHg 83%
    16:00 +2°C° 0.4 mm 6 mps 744 mmHg 83%
    17:00 +2°C° 0.6 mm 6 mps 744 mmHg 84%
    18:00 +3°C° 0.6 mm 6 mps 743 mmHg 84%
    19:00 +3°C° 0.6 mm 7 mps 742 mmHg 84%
    20:00 +4°C° 0.7 mm 7 mps 742 mmHg 84%
    21:00 +5°C° 0.7 mm 7 mps 741 mmHg 84%
    22:00 +6°C° 0.7 mm 7 mps 741 mmHg 84%
    23:00 +6°C° 0.1 mm 7 mps 741 mmHg 85%

    22 December, Saturday

    Time Temperature Precipitation Wind Pressure Humidity
    00:00 +6°C° 0.1 mm 7 mps 741 mmHg 85%
    01:00 +7°C° 0.1 mm 6 mps 741 mmHg 86%
    02:00 +5°C° 0 mm 6 mps 742 mmHg 85%
    03:00 +5°C° 0 mm 6 mps 742 mmHg 83%
    04:00 +4°C° 0 mm 6 mps 742 mmHg 82%
    05:00 +5°C° 0 mm 5 mps 742 mmHg 82%
    06:00 +5°C° 0 mm 5 mps 742 mmHg 83%
    07:00 +3°C° 0 mm 5 mps 742 mmHg 83%
    08:00 +5°C° 0 mm 5 mps 742 mmHg 82%
    09:00 +5°C° 0 mm 5 mps 742 mmHg 82%
    10:00 +6°C° 0 mm 5 mps 742 mmHg 81%
    11:00 +5°C° 0.2 mm 6 mps 742 mmHg 80%
    12:00 +7°C° 0.2 mm 6 mps 742 mmHg 80%
    13:00 +7°C° 0.2 mm 6 mps 742 mmHg 79%
    14:00 +7°C° 0.3 mm 6 mps 742 mmHg 80%
    15:00 +6°C° 0.3 mm 7 mps 742 mmHg 81%
    16:00 +6°C° 0.3 mm 7 mps 743 mmHg 82%
    17:00 +6°C° 0.2 mm 8 mps 743 mmHg 79%
    18:00 +5°C° 0.2 mm 9 mps 744 mmHg 76%
    19:00 +5°C° 0.2 mm 10 mps 745 mmHg 73%
    20:00 +5°C° 0.1 mm 9 mps 745 mmHg 74%
    21:00 +4°C° 0.1 mm 8 mps 745 mmHg 75%
    22:00 +4°C° 0.1 mm 8 mps 746 mmHg 76%
    23:00 +4°C° 0 mm 7 mps 746 mmHg 77%

    23 December, Sunday

    Time Temperature Precipitation Wind Pressure Humidity
    00:00 +3°C° 0 mm 7 mps 746 mmHg 79%
    01:00 +3°C° 0 mm 7 mps 746 mmHg 80%
    02:00 +3°C° 0 mm 6 mps 746 mmHg 81%
    03:00 +3°C° 0 mm 6 mps 747 mmHg 82%
    04:00 +3°C° 0 mm 6 mps 747 mmHg 83%
    05:00 +3°C° 0 mm 6 mps 747 mmHg 83%
    06:00 +3°C° 0 mm 6 mps 747 mmHg 82%
    07:00 +3°C° 0 mm 6 mps 748 mmHg 82%
    08:00 +3°C° 0 mm 6 mps 748 mmHg 81%
    09:00 +3°C° 0 mm 7 mps 748 mmHg 80%
    10:00 +4°C° 0 mm 7 mps 749 mmHg 79%
    11:00 +4°C° 0 mm 7 mps 749 mmHg 78%
    12:00 +4°C° 0 mm 7 mps 749 mmHg 77%
    13:00 +4°C° 0 mm 7 mps 749 mmHg 75%
    14:00 +4°C° 0.1 mm 7 mps 749 mmHg 76%
    15:00 +3°C° 0.1 mm 6 mps 749 mmHg 77%
    16:00 +3°C° 0.1 mm 6 mps 749 mmHg 78%
    17:00 +3°C° 0.2 mm 6 mps 750 mmHg 78%
    18:00 +3°C° 0.2 mm 6 mps 750 mmHg 79%
    19:00 +3°C° 0.2 mm 6 mps 750 mmHg 80%
    20:00 +2°C° 0.1 mm 6 mps 750 mmHg 80%
    21:00 +2°C° 0.1 mm 5 mps 750 mmHg 81%
    22:00 +2°C° 0.1 mm 5 mps 750 mmHg 82%
    23:00 +2°C° 0.2 mm 6 mps 750 mmHg 81%

    24 December, Monday

    Time Temperature Precipitation Wind Pressure Humidity
    00:00 +3°C° 0.2 mm 7 mps 750 mmHg 81%
    01:00 +2°C° 0.2 mm 8 mps 750 mmHg 80%
    02:00 +2°C° 0.4 mm 7 mps 751 mmHg 82%
    03:00 +2°C° 0.4 mm 6 mps 751 mmHg 83%
    04:00 +2°C° 0.4 mm 6 mps 751 mmHg 85%
    05:00 +1°C° 0.3 mm 5 mps 752 mmHg 87%
    06:00 +1°C° 0.3 mm 4 mps 753 mmHg 89%
    07:00 +2°C° 0.3 mm 3 mps 753 mmHg 92%
    08:00 +2°C° 0.2 mm 3 mps 754 mmHg 90%
    09:00 +2°C° 0.2 mm 3 mps 754 mmHg 89%
    10:00 +3°C° 0.2 mm 3 mps 755 mmHg 88%
    11:00 +3°C° 0.2 mm 4 mps 755 mmHg 86%
    12:00 +3°C° 0.2 mm 5 mps 755 mmHg 83%
    13:00 +3°C° 0.2 mm 5 mps 755 mmHg 81%
    14:00 +3°C° 0.1 mm 5 mps 755 mmHg 82%
    15:00 +3°C° 0.1 mm 5 mps 755 mmHg 83%
    16:00 +3°C° 0.1 mm 4 mps 755 mmHg 84%
    17:00 +2°C° 0.1 mm 5 mps 755 mmHg 85%
    18:00 +2°C° 0.1 mm 5 mps 755 mmHg 86%
    19:00 +2°C° 0.1 mm 5 mps 755 mmHg 86%
    20:00 +2°C° 0 mm 5 mps 755 mmHg 84%
    21:00 +1°C° 0 mm 5 mps 756 mmHg 82%
    22:00 +1°C° 0 mm 6 mps 756 mmHg 80%
    23:00 +1°C° 0.1 mm 5 mps 756 mmHg 81%
    Show more